Regional Weather Roundup
Issued by NWS

Home | Current Version | Previous Version | Graphics & Text | Print | Product List | Glossary On
Versions: 1 2 3 4 5 6 7 8 9 10 11 12 13 14 15 16 17 18 19 20 21 22 23 24 25 26 27 28 29 30 31 32 33 34 35 36 37 38 39 40 41 42 43 44 45
000
ASUS45 KCYS 270010
RWRWY

WYOMING REGIONAL WEATHER ROUNDUP
NATIONAL WEATHER SERVICE CHEYENNE WY
500 PM MST FRI DEC 26 2014

NOTE:  "FAIR" INDICATES FEW OR NO CLOUDS BELOW 12,000 FEET
WITH NO SIGNIFICANT WEATHER AND/OR OBSTRUCTIONS TO VISIBILITY.

WYZ001-270100-
YELLOWSTONE NATIONAL PARK

CITY           SKY/WX    TMP DP  RH WIND       PRES   REMARKS
LK YELLOWSTONE   N/A     11   5  77 NW6       29.95R WCI   1
6HR MIN TEMP:   8; 6HR MAX TEMP:  15;

W YELLOWSTONE  NOT AVBL

$$
WYZ002>013-054>058-071-098>099-270100-
NORTHERN WYOMING

CITY           SKY/WX    TMP DP  RH WIND       PRES   REMARKS
JACKSON        CLOUDY    16  10  79 CALM      29.97R
CODY           CLOUDY    21  16  79 S3        30.02R
GREYBULL       CLOUDY    16  13  88 CALM      30.10R
6HR MIN TEMP:  15; 6HR MAX TEMP:  20;

WORLAND        CLOUDY    13  12  96 S5        30.08R WCI   5
6HR MIN TEMP:   9; 6HR MAX TEMP:  19; 6HR PCP: TRACE;

SHERIDAN       FAIR       8   3  80 CALM      30.07R
6HR MIN TEMP:   8; 6HR MAX TEMP:  21;

BUFFALO        FAIR      15   9  76 CALM      30.02R
6HR MIN TEMP:  12; 6HR MAX TEMP:  22;

GILLETTE       FAIR       4   1  88 SW6       30.04R WCI  -7
6HR MIN TEMP:   4; 6HR MAX TEMP:  20;

HULETT           N/A    N/A N/A N/A MISG        N/A
NEWCASTLE      FAIR      18  12  79 NW8       30.04S WCI   7

$$
WYZ014>020-022>026-101>103-270100-
CENTRAL WYOMING

CITY           SKY/WX    TMP DP  RH WIND       PRES   REMARKS
BIG PINEY      CLOUDY    11   7  84 CALM      29.95R
6HR MIN TEMP:   9; 6HR MAX TEMP:  17; 6HR PCP: TRACE;

PINEDALE       LGT SNOW  12   9  85 CALM      29.95R
DUBOIS         NOT AVBL
LANDER         CLOUDY    15  11  83 CALM      30.01R
6HR MIN TEMP:  15; 6HR MAX TEMP:  20; 6HR PCP: TRACE;

RIVERTON       CLOUDY    16  12  84 W6        30.02R WCI   7
6HR MIN TEMP:  16; 6HR MAX TEMP:  20; 6HR PCP: TRACE;

CASPER         MOCLDY    12   8  84 S5        30.00R WCI   4
6HR MIN TEMP:  11; 6HR MAX TEMP:  19; 6HR PCP: TRACE;

DOUGLAS        CLOUDY    15  11  83 NW6       30.02R WCI   6
6HR MIN TEMP:  15; 6HR MAX TEMP:  18;


$$
WYZ021-027>030-104>119-270100-
SOUTHERN WYOMING

CITY           SKY/WX    TMP DP  RH WIND       PRES   REMARKS
EVANSTON       LGT SNOW  16  13  88 N7        29.96R FOG     WCI   6
6HR MIN TEMP:  15; 6HR MAX TEMP:  21; 6HR PCP: TRACE;

FORT BRIDGER   LGT SNOW  16  14  91 S5        29.98R WCI   9
ROCK SPRINGS   FLURRIES  15   9  76 N7        29.96R WCI   5
6HR MIN TEMP:  15; 6HR MAX TEMP:  17; 6HR PCP: TRACE;

DIXON          CLOUDY    16  10  76 N7        29.91R WCI   6
RAWLINS        CLOUDY     6   2  83 N8        29.93R WCI  -7
6HR MIN TEMP:   6; 6HR MAX TEMP:  15; 6HR PCP: TRACE;

SARATOGA       LGT SNOW  12  10  92 N8        29.89R WCI   1
LARAMIE        LGT SNOW   7   4  87 NW9       29.86R FOG     WCI  -7
6HR MIN TEMP:   7; 6HR MAX TEMP:  11; 6HR PCP: TRACE;

CHEYENNE       LGT SNOW  12   8  84 N6        29.92R FOG     WCI   3
6HR MIN TEMP:  12; 6HR MAX TEMP:  17; 6HR PCP: TRACE;

TORRINGTON     FLURRIES  18  15  88 W5        30.03R WCI  11
6HR MIN TEMP:  18; 6HR MAX TEMP:  21; 6HR PCP:  0.11;

PINE BLUFFS    LGT SNOW  14  12  92 N6        29.98R WCI   5

$$



USA.gov is the U.S. government's official web portal to all federal, state and local government web resources and services.